Flag for Guatemala Weather past 2 weeks in Guatemala, Guatemala

Now
70 °F

Partly sunny.


Feels Like: 70 °F
Forecast: 63 / 79 °F
Wind: 14 mph from North

Location: Guatemala Aeropuertola Aurora

Current Time: May 22, 2015 at 10:06:22 AM

Latest Report: May 22, 2015 at 9:00 AM


Visibility: 4 mi

Pressure: 30.36 "Hg

Humidity: 78%

Dew point: 63 °F

Location of GuatemalaLocation

Historic Weather in Guatemala — Graph

°F

Guatemala temperature yesterday

Maximum temperature yesterday: 84 °F (at 2:00 PM)
Minimum temperature yesterday: 63 °F (at 4:00 AM)
Average temperature yesterday: 71 °F

Past Weeks' High & Low Weather Summary

 TemperatureHumidityPressure
High84 °F (May 21, 2:00 PM)100% (May 15, 11:00 PM)30.36 "Hg (May 15, 11:00 PM)
Low59 °F (May 16, 4:00 AM)29% (May 21, 2:00 PM)30.15 "Hg (May 7, 4:00 PM)
Average70 °F75%30.26 "Hg
* Reported May 7 9:00 AM — May 22 9:00 AM, Guatemala, Weather by CustomWeather, © 2015

Note: Actual official high and low records may vary slightly from our data, if they occured in-between our weather recording intervals... More about our weather records

Advertising

Guatemala weather history for previous 24 hours

 ConditionsComfort  
Time TempWeatherWind HumidityBarometerVisibility
9:00 AM
Fri, May 22
70 °FPartly sunny.14 mph78%30.36 "Hg4 mi
8:00 AM66 °FPartly sunny.12 mph88%30.33 "Hg4 mi
7:00 AM66 °FScattered clouds.7 mph88%30.33 "Hg5 mi
6:00 AM63 °FFog.9 mph94%30.30 "Hg3 mi
5:00 AM63 °FPassing clouds.12 mph100%30.27 "Hg4 mi
4:00 AM64 °FPassing clouds.9 mph94%30.27 "Hg5 mi
3:00 AM64 °FPartly cloudy.9 mph100%30.27 "Hg4 mi
2:00 AM66 °FFog.9 mph88%30.30 "Hg3 mi
1:00 AM66 °FFog.12 mph94%30.30 "Hg3 mi
12:00 AM64 °FLight rain. Mostly cloudy.9 mph94%30.33 "Hg4 mi
11:00 PM
Thu, May 21
64 °FLight rain. Partly cloudy.12 mph94%30.33 "Hg5 mi
10:00 PM66 °FThunderstorms. Mostly cloudy.12 mph94%30.33 "Hg4 mi
9:00 PM66 °FThunderstorms. Partly cloudy.7 mph88%30.30 "Hg3 mi
8:00 PM68 °FThundershowers. Partly cloudy.3 mph88%30.30 "Hg2 mi
7:35 PMN/AThunderstorms.3 mphN/AN/A2 mi
7:00 PM66 °FStrong thunderstorms. Passing clouds.3 mph88%30.27 "Hg2 mi
6:20 PMN/AThunderstorms.18 mphN/AN/A2 mi
6:00 PM73 °FThunderstorms. Partly sunny.9 mph74%30.21 "HgN/A
5:00 PM77 °FScattered clouds.14 mph61%30.21 "HgN/A
4:00 PM79 °FScattered clouds.14 mph65%30.18 "HgN/A
3:00 PM84 °FScattered clouds.9 mph43%30.21 "HgN/A
2:00 PM84 °FScattered clouds.7 mph29%30.24 "HgN/A
1:00 PM82 °FPartly sunny.7 mph37%30.24 "HgN/A
12:00 PM82 °FScattered clouds.9 mph40%30.27 "HgN/A
11:00 AM79 °FScattered clouds.12 mph42%30.30 "HgN/A
10:00 AM75 °FScattered clouds.9 mph61%30.30 "HgN/A
Weather by CustomWeather, © 2015

See weather overviewHow to use our weather pages